User: anonymous   Login
Location: Fort Wayne
(41.1310°N, 85.1290°W)
Time: 08:55:07
(UTC-04:00)
Language:

Meteor 2-9 Rocket - Orbit

View from above orbital plane
View from above orbital plane
View from above satellite
View from above satellite

Ground track
Ground track

The orbit data is extracted from the following two-line orbital elements,

1 13719U 82116B   17268.94633913 +.00000093 +00000-0 +40538-4 0  9997
2 13719 081.2516 261.6568 0072799 065.7371 354.7587 14.14610405794615
Epoch (UTC): 25 September 2017 22:42:43
Eccentricity: 0.0072799
inclination: 81.2516°
perigee height: 791 km
apogee height: 896 km
right ascension of ascending node: 261.6568°
argument of perigee: 65.7371°
revolutions per day: 14.14610405
mean anomaly at epoch: 354.7587°
orbit number at epoch: 79461

The dashed part of the orbit path shows where the satellite is in the earth's shadow,  

DLR